Helicity
272 323 358 88 208 228 219 190 146 114 103 109 109 59 61 73 49 14 43 68 58 58 42 53 26 -33 22 2 62 86 151 175 235 228 264 289 328 251 223 263 215 181 170 170
333 248 114 135 155 183 188 175 121 91 93 93 54 13 71 59 3 43 34 55 43 49 78 49 55 55 41 45 24 91 96 174 233 234 232 325 288 245 235 288 207 231 208 188
234 207 152 166 205 215 167 166 114 114 137 92 70 8 -10 16 21 31 46 37 37 22 24 37 35 46 29 114 120 76 99 102 218 248 311 381 363 363 381 290 283 209 226 223
170 120 93 145 224 167 165 104 104 105 107 99 58 55 -53 37 -9 31 25 48 37 21 23 25 -4 40 41 58 107 129 101 113 167 249 251 273 334 333 300 340 312 257 94 193
191 127 144 214 104 156 97 83 100 109 104 105 78 71 31 -5 35 2 50 45 48 38 42 -12 -16 77 125 68 68 110 110 111 116 241 277 283 285 316 364 348 253 72 111 198
151 103 102 106 93 104 88 116 124 129 108 98 42 87 48 5 11 44 64 62 50 8 -15 -19 35 51 125 71 85 101 140 146 149 190 239 251 247 353 357 321 378 275 319 322
159 137 83 72 130 118 139 144 131 132 148 111 40 87 83 60 49 57 64 68 53 -13 -67 -15 12 52 119 78 108 122 181 211 149 122 137 194 246 274 347 370 261 383 377 310
225 242 180 163 127 118 113 112 139 127 99 43 63 99 49 51 79 88 135 66 55 -37 -78 -25 -1 98 121 90 128 190 210 272 138 142 129 167 242 282 252 247 321 306 296 280
165 160 117 154 139 117 119 137 124 136 156 92 95 112 86 92 46 187 111 80 36 -73 -74 1 13 164 184 135 207 198 214 202 92 140 161 188 209 223 258 220 174 150 207 254
117 142 93 102 79 169 161 134 144 199 164 156 146 81 86 139 155 125 98 72 14 -27 -34 9 14 68 74 125 191 207 235 287 102 136 147 177 205 231 219 213 152 186 218 201
93 96 105 126 131 103 114 136 160 169 206 212 166 138 236 191 110 50 75 55 -6 -23 -19 -6 11 61 68 118 163 241 300 409 328 128 110 154 191 229 201 155 169 153 155 161
90 71 72 73 96 57 110 164 210 246 283 282 275 196 165 113 99 86 59 21 16 -38 -52 -17 16 34 92 164 221 299 340 425 378 295 182 114 146 155 187 152 130 128 174 166
62 74 71 61 99 111 146 159 163 156 187 225 268 291 175 18 39 43 31 -29 20 -18 -17 25 30 54 71 171 227 358 342 395 427 342 259 176 177 160 208 116 131 172 195 155
85 103 93 94 135 141 137 145 142 135 180 162 206 143 144 154 75 38 33 -44 -18 -25 -27 31 64 62 77 135 163 271 317 384 316 270 270 329 358 126 128 127 144 185 200 173
88 86 96 80 107 119 116 98 97 160 154 201 119 138 105 110 68 76 30 4 24 32 15 19 56 83 76 115 188 179 172 255 207 126 212 271 363 474 371 327 317 311 275 250
109 111 100 98 84 87 91 62 73 53 55 103 122 110 89 113 121 99 85 85 86 82 58 29 45 75 85 86 178 187 205 197 131 114 189 193 237 269 542 531 398 393 310 278
106 109 110 100 115 101 146 83 97 99 12 9 103 100 128 112 126 76 53 90 97 57 44 58 61 65 78 88 93 145 184 162 166 160 183 219 115 146 469 626 517 443 353 273
112 130 125 107 79 163 88 105 44 27 17 101 98 62 67 116 108 105 84 78 90 70 59 52 55 66 69 70 66 84 154 162 165 152 198 284 168 142 115 285 544 468 392 345
60 104 86 115 120 112 49 103 47 6 37 51 63 40 104 111 90 154 114 66 67 40 38 35 48 52 54 56 61 56 99 148 208 195 263 286 194 237 253 308 240 360 396 404
86 98 90 73 22 -31 25 24 -30 -40 59 -13 17 49 33 20 51 77 30 62 84 67 36 41 48 40 55 62 57 72 72 88 151 218 183 177 194 155 161 189 154 222 245 267
25 30 29 22 35 40 32 -16 -61 10 -15 -34 10 65 90 57 45 19 56 97 67 48 42 44 46 49 60 39 30 58 79 92 60 80 128 153 160 194 179 182 241 189 209 238
13 29 29 36 77 45 -16 -42 5 40 31 31 41 41 61 70 71 57 55 51 52 49 50 55 43 48 62 66 37 44 54 44 42 51 66 85 116 104 150 153 162 175 188 209
4 -2 33 54 54 -16 -21 7 22 66 41 42 26 40 35 25 18 9 7 15 27 39 37 37 34 42 63 66 62 55 51 43 54 62 72 88 87 103 115 130 162 205 245 248
26 20 5 2 -0 -4 15 5 3 22 29 22 22 22 10 6 -6 -0 -1 6 13 16 23 30 46 52 62 63 59 45 39 41 50 63 78 77 85 96 106 107 113 126 154 159
36 34 23 -6 23 9 4 19 22 28 20 27 34 31 16 7 4 -8 -8 4 3 11 26 26 21 26 47 55 56 52 48 31 35 45 54 68 75 81 84 104 109 102 102 85
31 22 28 11 7 5 3 12 8 14 13 14 17 20 17 11 6 -1 10 14 23 30 30 45 48 44 42 43 60 70 56 34 23 30 33 41 47 53 58 50 99 195 142 139
Wind_Speed
39 52 54 48 48 54 60 62 66 58 55 62 71 76 74 70 68 69 69 70 75 81 79 79 78 78 81 77 78 81 72 62 59 62 59 57 54 51 42 38 37 38 38 31
46 60 47 46 47 52 54 57 60 54 48 48 63 77 75 63 58 60 62 66 72 80 86 85 83 77 78 86 80 78 75 62 53 57 59 56 55 54 53 48 55 44 41 35
49 46 36 47 51 54 51 50 51 53 55 55 60 69 52 57 49 53 57 65 71 80 89 92 86 86 82 83 81 80 79 74 57 52 51 55 55 53 60 53 55 58 51 41
57 58 61 50 49 42 56 41 47 52 50 55 49 70 58 44 60 58 65 72 75 83 88 87 89 89 84 80 79 80 78 78 59 47 46 52 59 58 58 54 51 52 70 42
53 47 48 52 45 33 47 45 47 48 47 49 49 47 46 63 60 60 68 72 77 80 86 91 88 86 82 77 76 75 76 78 62 47 39 55 54 61 52 51 38 15 42 29
45 36 36 34 32 33 38 41 45 45 44 58 43 44 59 61 58 61 64 67 71 75 83 85 84 76 74 73 70 69 68 72 53 47 39 54 56 50 45 47 46 33 30 26
46 48 43 38 39 36 34 37 51 54 50 55 36 49 58 61 54 57 59 60 69 79 84 84 82 74 71 71 65 63 63 67 54 59 58 49 54 53 49 45 29 34 30 28
42 44 36 36 34 36 36 38 45 60 55 55 48 58 57 48 45 47 52 62 71 82 84 82 75 71 70 67 62 60 62 64 51 58 50 47 48 54 59 65 48 38 32 31
37 38 33 34 35 35 36 42 42 55 55 69 59 58 60 44 43 44 57 65 75 83 83 78 75 69 68 62 59 59 61 63 61 53 45 44 46 47 53 57 52 44 32 27
37 43 35 35 35 37 36 39 45 47 63 69 60 59 54 56 51 53 64 65 75 80 78 74 69 63 60 55 55 54 51 52 53 40 35 37 42 42 42 49 51 35 29 24
36 42 45 39 39 48 49 47 43 43 48 64 73 57 50 51 55 56 58 65 75 75 74 71 68 62 59 55 52 51 47 44 43 39 34 31 38 37 35 47 43 35 21 22
36 36 44 45 53 44 39 43 46 55 57 53 55 60 42 51 53 55 58 66 68 66 67 67 66 62 57 55 53 51 48 43 42 45 39 32 35 34 37 52 40 30 27 25
33 39 44 42 37 34 36 38 40 49 50 61 68 64 42 50 57 58 58 61 63 65 66 64 63 62 57 54 54 51 49 46 43 41 40 45 45 47 46 41 32 30 26 24
34 36 40 48 45 46 55 55 54 52 62 69 69 80 82 70 65 60 59 59 55 61 61 61 61 59 57 53 52 50 50 47 45 44 42 44 45 41 43 35 31 30 27 21
38 42 43 48 51 53 57 61 62 60 64 77 86 77 70 66 61 58 55 54 54 54 56 57 57 58 58 55 53 51 49 50 47 43 44 47 48 43 43 37 30 28 27 23
41 48 48 55 53 53 63 61 62 65 70 76 77 79 68 51 46 51 49 51 53 50 53 54 53 55 56 56 54 50 51 51 46 42 42 42 36 38 44 46 28 26 28 22
40 40 47 54 46 58 70 58 55 63 68 73 68 61 45 44 47 47 46 45 44 47 49 51 50 51 54 54 54 50 49 47 44 43 40 36 30 30 27 30 31 25 24 20
33 38 43 56 56 71 49 41 46 61 64 59 53 52 36 36 36 34 35 40 41 44 44 47 47 47 49 50 52 49 48 45 42 41 40 34 32 28 17 20 17 20 18 20
21 29 45 55 57 57 48 44 48 54 59 51 46 36 30 28 23 28 34 34 35 37 41 44 46 47 48 50 50 51 50 46 44 40 40 39 32 30 20 25 21 16 18 20
26 24 32 38 42 41 33 55 53 58 44 35 35 38 41 42 37 34 32 30 34 37 40 42 44 45 47 50 49 49 49 48 46 44 41 38 37 33 28 25 21 18 18 19
30 28 25 27 33 33 46 46 41 30 34 27 27 30 31 27 17 15 22 28 31 34 37 39 41 43 45 44 47 48 48 48 48 45 43 40 37 33 30 31 28 24 25 23
27 27 26 23 26 28 41 33 28 33 30 26 21 16 14 11 17 20 21 24 27 31 34 39 41 43 45 48 46 48 49 47 47 47 47 45 42 38 34 32 32 29 29 28
29 31 28 30 28 33 32 28 30 27 24 21 17 10 20 30 27 25 30 33 36 38 41 43 43 46 48 50 52 49 49 48 47 47 47 47 45 43 39 36 34 34 32 31
30 29 26 32 30 28 25 27 28 19 17 18 19 22 25 29 34 36 36 38 41 43 44 46 47 48 50 51 52 51 50 49 48 47 48 47 45 43 42 40 37 35 33 31
30 32 29 31 32 28 24 22 24 22 19 20 20 22 32 36 36 36 38 41 43 43 45 46 48 49 50 51 51 51 51 49 48 47 47 45 45 44 42 42 40 38 37 34
31 32 32 33 31 19 22 21 24 23 24 23 25 27 24 24 29 33 39 45 47 47 48 48 48 50 52 52 53 53 51 50 48 47 46 45 44 42 41 38 38 43 39 37
Wind_Direction
276 276 276 280 285 288 296 300 300 304 308 308 304 303 304 309 310 310 312 313 313 312 317 317 315 308 302 297 292 281 277 271 259 253 250 252 254 255 256 252 243 243 250 253
280 274 277 288 290 291 295 299 301 308 311 313 309 304 305 310 313 317 318 319 319 317 317 322 321 314 302 293 290 287 277 272 261 254 247 252 252 257 255 257 256 244 243 247
272 295 282 279 288 291 294 297 302 305 312 311 311 306 311 316 322 323 324 325 325 324 322 322 322 311 304 295 288 284 280 271 262 257 251 253 252 259 256 257 255 252 242 240
278 277 282 288 287 288 291 299 302 305 310 307 316 304 312 320 322 323 324 329 330 328 328 325 316 308 305 299 292 283 281 271 260 254 248 241 242 246 255 254 253 259 250 243
280 287 285 278 279 285 294 301 304 304 303 308 308 307 310 317 321 326 329 335 336 335 332 322 314 312 303 302 292 287 279 267 257 251 243 246 247 250 250 243 246 222 245 253
272 297 299 297 293 290 302 303 305 304 305 300 301 302 307 317 323 328 335 340 344 341 334 324 322 315 305 303 295 288 279 264 256 248 247 248 246 242 239 238 243 248 239 237
280 283 290 297 292 298 293 297 297 298 297 298 308 304 305 318 328 332 337 344 347 339 330 329 317 308 304 305 297 290 279 265 259 250 253 254 248 243 238 231 219 232 229 235
275 281 291 299 295 294 294 291 291 293 296 299 307 302 312 328 334 339 345 347 346 333 329 332 318 313 310 307 299 291 277 267 260 251 258 259 250 243 246 245 243 243 242 247
280 284 298 306 302 300 296 292 300 295 297 297 301 306 314 326 331 341 342 345 338 328 327 329 324 319 313 308 299 294 280 266 255 256 259 255 245 245 248 247 251 254 252 248
284 284 298 299 300 312 306 305 297 302 295 294 301 308 312 324 330 337 338 343 331 327 326 329 324 319 318 307 301 294 284 274 255 262 261 252 247 248 248 248 254 250 249 251
291 285 288 297 298 296 299 300 304 304 300 296 297 304 326 327 330 336 340 337 326 324 329 328 324 321 319 314 305 299 299 286 270 263 266 256 249 246 251 252 254 248 242 249
296 297 291 297 301 305 304 305 303 293 294 299 302 300 324 331 337 336 336 322 320 323 323 326 327 323 318 315 312 306 303 291 281 271 268 266 258 262 257 250 247 243 247 249
306 302 298 305 310 313 312 314 315 309 303 292 291 294 317 329 330 328 327 316 316 318 325 323 327 326 321 316 316 311 307 298 288 286 285 273 273 267 252 245 238 240 243 250
316 308 304 297 305 306 301 305 307 305 298 296 289 294 295 308 314 316 310 307 319 316 326 325 327 327 325 317 318 314 310 308 306 295 296 289 278 266 252 236 234 237 242 250
314 307 306 304 305 306 304 304 306 303 300 296 297 292 296 298 300 298 294 302 319 315 322 326 327 329 330 324 318 320 322 316 309 307 310 308 285 268 256 235 228 238 242 252
317 307 312 308 310 309 305 306 306 304 304 299 294 291 293 295 290 284 287 296 310 314 324 326 327 330 333 333 327 321 324 326 327 321 316 323 298 281 263 252 234 231 243 254
320 320 318 312 321 316 307 315 316 314 313 312 296 295 285 279 273 271 285 299 314 320 323 325 325 329 335 335 336 332 331 329 332 333 326 316 321 320 283 263 227 226 243 260
330 326 323 314 319 307 322 336 330 322 328 322 313 292 278 260 258 274 298 321 316 319 319 327 327 327 332 335 342 341 343 339 335 336 340 328 333 321 277 275 246 244 255 272
341 332 324 318 316 314 316 328 329 328 326 316 292 277 259 243 259 290 314 319 324 317 320 326 332 334 337 341 340 348 352 348 345 341 340 339 335 334 300 309 292 295 279 287
3 351 338 338 332 330 341 296 278 299 320 267 258 243 227 233 262 280 308 337 343 340 335 333 335 336 340 343 345 348 353 353 350 344 343 342 342 339 343 331 316 311 310 313
4 9 360 355 350 352 295 275 264 299 248 242 223 233 233 245 312 336 327 340 337 340 340 338 342 345 342 339 350 355 354 355 353 353 350 346 344 339 337 342 335 317 336 330
11 7 13 25 13 12 293 264 249 245 259 260 261 262 3 359 5 357 332 326 327 335 333 341 345 345 345 349 349 354 356 351 356 357 358 356 352 347 337 338 338 333 337 319
14 0 7 357 47 272 287 283 299 280 273 276 306 293 6 29 15 355 359 356 357 352 354 356 351 353 350 351 356 355 352 354 355 358 357 357 358 357 350 349 340 338 338 331
304 297 337 158 132 297 285 318 335 306 313 333 348 3 9 17 20 16 9 7 6 6 4 2 2 360 356 355 357 358 357 357 359 358 357 359 0 360 2 360 356 354 343 340
294 283 300 189 100 19 311 314 333 333 334 341 343 349 13 23 16 12 11 11 11 9 5 5 6 5 0 354 354 351 353 355 359 1 359 358 360 1 5 8 1 4 5 357
291 281 276 243 183 23 295 323 338 345 351 348 354 1 344 345 357 2 11 20 20 13 9 5 0 360 358 357 356 351 347 350 355 356 355 354 355 355 355 358 2 11 10 7